Location: Utrecht
(52.0917°N, 5.1178°E)
Time: 00:07:47
(UTC+02:00)

X-37B - Pass Details

Date: 25 June 2021
Orbit: 383 x 392 km, 45.0° (Epoch: 01 July)

Event Time Altitude Azimuth Distance (km) Brightness Sun altitude
Rises 23:45:40 0° 243° (WSW) 2,254 4.5 -10.3°
Reaches altitude 10° 23:48:00 10° 227° (SW) 1,401 3.2 -10.5°
Maximum altitude 23:50:30 22° 174° (S) 902 1.9 -10.7°
Enters shadow 23:51:45 17° 141° (SE) 1,050 2.1 -10.8°
